{"data":{"norad_id":32265,"intl_designator":"2007-048C","name":"GLOBALSTAR M066","alt_names":[],"object_type":"PAYLOAD","status":"ACTIVE","operator":null,"country":"GLOB","launch_date":"2007-10-20","launch_site_code":"TYMSC","launch_vehicle":null,"mission":null,"orbit_class":"UNKNOWN","rcs_meters":1.9408,"size_class":null,"mass_kg":null,"dimensions":null,"purposes":["comms"],"wikipedia_slug":null,"has_3d_model":false,"image_url":null,"decayed_at":null,"tle_current":{"epoch":"2026-05-25T04:07:59.497824Z","epoch_age_seconds":70380,"freshness":"FRESH","line1":"1 32265U 07048C   26145.17221641 -.00000072  00000+0  18880-3 0  9996","line2":"2 32265  51.9563 123.9806 0005007 353.1037  90.1775 12.30388866857398","mean_motion":12.30388866,"eccentricity":0.0005007,"inclination_deg":51.9563,"raan_deg":123.9806,"arg_perigee_deg":353.1037,"mean_anomaly_deg":90.1775,"bstar":0.0001888,"rev_number":85739,"period_min":117.03616960396,"perigee_km":1543.6423329062,"apogee_km":1551.5791767079,"semimajor_km":7925.7477548071,"source":"CELESTRAK","updated_at":"2026-05-25T13:38:23.039102Z"}}}